Content
SEND FEEDBACK

Daily
Averages
Monthly
Summary
United States of America

MERIZO, GUAM


Home > North America > United States > Guam
Elevation: 10 feet     Latitude: 13 14N     Longitude: 144 39E

WEATHER
 
SELECT A DAY
Number of Records: 351,709;   Date Range: 1/1/95 - 10/22/14
 
SHARE

PRINT THIS DATA

[ ← Previous Day ]
WEATHER ALMANAC - MARCH 31, 2013
[ Next Day → ]
[ °C ]   °F
Weather ElementAverageHighLow
Temperature79.3 °F84 °F (12:55 pm)77 °F (12:58 am)
Dewpoint73.3 °F75.2 °F (1:07 am)71.1 °F (10:55 am)
Humidity81.9 %94 % (2:35 am)67 % (12:55 pm)
Barometer29.88 in29.95 in (9:46 am)29.83 in (4:06 pm)
Wind Speed13.2 mph17.3 mph (2:36 am)
Wind Gust23 mph (10:29 pm)
Weather ElementAverage
Visibility9.9 mi
Wind DirectionE (85.5 °)

Weather ElementTotal
Precipitation---
Cooling Degree Days15.5 (Base 65)
Growing Degree Days30.5 (Base 50)
Averaged from 86 records on March 31, 2013
WEATHER CONDITIONS BREAKOUT
WIND DIRECTION BREAKOUT
WEATHER BY HOUR - MARCH 31, 2013
[ °C ]   °F
Local TimeTemperatureDewpointHumidityBarometerVisibilityWind DirectionWind SpeedGust SpeedPrecipitationEventsConditions
12:58 AM77.0 °F73.4 °F89 %29.89 in10.0 miENE (60°)13.8 mphMostly Cloudy
12:59 AM77.0 °F73.4 °F89 %29.89 in10.0 miENE (60°)15.0 mphLight Drizzle
1:01 AM78.8 °F73.4 °F83 %29.89 in10.0 miENE (70°)13.8 mphLight Drizzle
1:02 AM78.8 °F73.4 °F83 %29.89 in10.0 miENE (70°)12.7 mphLight Drizzle
1:07 AM78.8 °F75.2 °F89 %29.89 in10.0 miEast (90°)15.0 mphMostly Cloudy
1:17 AM78.8 °F73.4 °F83 %29.88 in10.0 miEast (80°)13.8 mphMostly Cloudy
1:23 AM78.8 °F73.4 °F83 %29.88 in10.0 miEast (90°)13.8 mphMostly Cloudy
1:55 AM78.1 °F73.6 °F86 %29.88 in10.0 miEast (80°)12.7 mph0.00 inMostly Cloudy
2:22 AM77.0 °F73.4 °F89 %29.87 in8.0 miEast (80°)16.1 mphRainLight Rain
2:29 AM77.0 °F73.4 °F89 %29.87 in6.0 miEast (80°)13.8 mphRainLight Rain
2:35 AM77.0 °F75.2 °F94 %29.87 in9.0 miEast (80°)16.1 mphRainLight Rain
2:36 AM77.0 °F75.2 °F94 %29.87 in10.0 miEast (90°)17.3 mphMostly Cloudy
2:37 AM77.0 °F73.4 °F89 %29.87 in10.0 miEast (90°)16.1 mphMostly Cloudy
2:47 AM77.0 °F73.4 °F89 %29.87 in10.0 miEast (90°)13.8 mphScattered Clouds
2:49 AM77.0 °F73.4 °F89 %29.87 in10.0 miEast (90°)15.0 mphMostly Cloudy
2:51 AM77.0 °F73.4 °F89 %29.87 in10.0 miEast (90°)11.5 mph20.7 mphMostly Cloudy
2:55 AM77.4 °F73.6 °F88 %29.87 in10.0 miEast (90°)17.3 mph20.7 mph0.00 inMostly Cloudy
3:00 AM77.0 °F73.4 °F89 %29.87 in10.0 miEast (90°)15.0 mph20.7 mphMostly Cloudy
3:06 AM77.0 °F71.6 °F83 %29.87 in10.0 miEast (90°)15.0 mphScattered Clouds
3:17 AM77.0 °F73.4 °F89 %29.86 in10.0 miEast (90°)12.7 mphMostly Cloudy
3:20 AM77.0 °F73.4 °F89 %29.86 in10.0 miEast (80°)16.1 mphMostly Cloudy
3:55 AM77.2 °F72.3 °F85 %29.87 in10.0 miEast (90°)13.8 mphScattered Clouds
4:28 AM77.0 °F71.6 °F83 %29.87 in10.0 miEast (90°)15.0 mphScattered Clouds
4:55 AM77.4 °F72.9 °F86 %29.87 in10.0 miEast (90°)12.7 mphPartly Cloudy
5:42 AM77.0 °F73.4 °F89 %29.88 in10.0 miEast (90°)9.2 mphMostly Cloudy
5:47 AM77.0 °F73.4 °F89 %29.88 in10.0 miEast (90°)13.8 mphMostly Cloudy
5:55 AM77.5 °F71.8 °F82 %29.88 in10.0 miEast (90°)12.7 mphMostly Cloudy
6:54 AM78.8 °F73.4 °F83 %29.91 in10.0 miEast (90°)9.2 mphMostly Cloudy
6:55 AM78.3 °F72.7 °F83 %29.91 in10.0 miEast (90°)10.4 mphMostly Cloudy
7:04 AM78.8 °F71.6 °F78 %29.91 in10.0 miEast (90°)10.4 mphMostly Cloudy
7:55 AM80.1 °F73.4 °F80 %29.93 in10.0 miEast (100°)9.2 mphMostly Cloudy
8:55 AM81.3 °F73.4 °F77 %29.94 in10.0 miEast (90°)11.5 mphMostly Cloudy
9:46 AM82.4 °F73.4 °F74 %29.95 in10.0 miEast (90°)15.0 mphMostly Cloudy
9:55 AM81.3 °F73.4 °F77 %29.94 in10.0 miEast (100°)10.4 mphMostly Cloudy
10:14 AM82.4 °F73.4 °F74 %29.94 in10.0 miEast (100°)12.7 mphMostly Cloudy
10:20 AM82.4 °F73.4 °F74 %29.94 in10.0 miEast (90°)13.8 mphMostly Cloudy
10:39 AM80.6 °F71.6 °F74 %29.94 in10.0 miEast (90°)13.8 mphOvercast
10:55 AM82.6 °F71.1 °F68 %29.94 in10.0 miESE (110°)12.7 mphMostly Cloudy
11:20 AM80.6 °F71.6 °F74 %29.94 in10.0 miESE (110°)9.2 mphMostly Cloudy
11:22 AM80.6 °F71.6 °F74 %29.94 in10.0 miEast (90°)10.4 mphMostly Cloudy
11:23 AM80.6 °F71.6 °F74 %29.94 in10.0 miEast (90°)11.5 mphMostly Cloudy
11:30 AM80.6 °F73.4 °F79 %29.93 in10.0 miEast (80°)13.8 mphMostly Cloudy
11:38 AM80.6 °F73.4 °F79 %29.93 in10.0 miEast (90°)12.7 mphOvercast
11:48 AM80.6 °F71.6 °F74 %29.93 in10.0 miEast (100°)8.1 mphOvercast
11:55 AM81.3 °F71.4 °F72 %29.92 in10.0 miEast (90°)8.1 mphMostly Cloudy
12:55 PM84.0 °F72.0 °F67 %29.89 in10.0 miEast (100°)12.7 mphPartly Cloudy
1:55 PM83.3 °F72.1 °F69 %29.86 in10.0 miENE (60°)11.5 mphClear
2:55 PM83.1 °F73.9 °F74 %29.85 in10.0 miENE (70°)12.7 mphScattered Clouds
3:10 PM82.4 °F75.2 °F79 %29.84 in10.0 miENE (70°)12.7 mphMostly Cloudy
3:18 PM82.4 °F75.2 °F79 %29.84 in10.0 miENE (60°)12.7 mphScattered Clouds
3:28 PM82.4 °F75.2 °F79 %29.84 in10.0 miENE (70°)9.2 mphMostly Cloudy
3:55 PM82.0 °F74.7 °F78 %29.84 in10.0 miEast (80°)12.7 mphMostly Cloudy
4:06 PM82.4 °F73.4 °F74 %29.83 in10.0 miEast (90°)15.0 mphMostly Cloudy
4:08 PM82.4 °F73.4 °F74 %29.83 in10.0 miEast (80°)13.8 mphScattered Clouds
4:28 PM80.6 °F73.4 °F79 %29.84 in10.0 miEast (80°)12.7 mphMostly Cloudy
4:37 PM80.6 °F73.4 °F79 %29.84 in10.0 miEast (80°)15.0 mphMostly Cloudy
4:55 PM80.6 °F73.6 °F79 %29.85 in10.0 miEast (90°)13.8 mphOvercast
5:12 PM80.6 °F73.4 °F79 %29.85 in10.0 miEast (90°)15.0 mphMostly Cloudy
5:24 PM80.6 °F73.4 °F79 %29.85 in10.0 miEast (80°)15.0 mphMostly Cloudy
5:26 PM80.6 °F73.4 °F79 %29.85 in10.0 miEast (90°)13.8 mphMostly Cloudy
5:30 PM78.8 °F73.4 °F83 %29.85 in10.0 miEast (100°)12.7 mphMostly Cloudy
5:35 PM78.8 °F73.4 °F83 %29.85 in10.0 miEast (90°)13.8 mphScattered Clouds
5:37 PM80.6 °F73.4 °F79 %29.86 in10.0 miEast (90°)15.0 mphMostly Cloudy
5:45 PM78.8 °F73.4 °F83 %29.86 in10.0 miEast (90°)12.7 mphScattered Clouds
5:55 PM79.5 °F73.4 °F81 %29.86 in10.0 miEast (90°)13.8 mphScattered Clouds
6:37 PM78.8 °F73.4 °F83 %29.86 in10.0 miEast (100°)11.5 mphMostly Cloudy
6:43 PM78.8 °F73.4 °F83 %29.86 in10.0 miEast (100°)11.5 mphScattered Clouds
6:44 PM78.8 °F73.4 °F83 %29.86 in10.0 miEast (90°)12.7 mphMostly Cloudy
6:55 PM79.0 °F73.8 °F84 %29.87 in10.0 miEast (80°)13.8 mph0.00 inRainLight Rain
7:11 PM78.8 °F73.4 °F83 %29.87 in10.0 miEast (90°)11.5 mphMostly Cloudy
7:13 PM78.8 °F73.4 °F83 %29.87 in10.0 miEast (90°)10.4 mphScattered Clouds
7:44 PM78.8 °F73.4 °F83 %29.88 in10.0 miEast (80°)15.0 mphMostly Cloudy
7:46 PM78.8 °F73.4 °F83 %29.88 in10.0 miEast (80°)12.7 mphMostly Cloudy
7:48 PM78.8 °F73.4 °F83 %29.88 in10.0 miEast (80°)12.7 mphMostly Cloudy
7:55 PM78.3 °F73.4 °F85 %29.88 in10.0 miEast (80°)15.0 mph0.00 inMostly Cloudy
8:08 PM78.8 °F73.4 °F83 %29.88 in10.0 miEast (90°)12.7 mphScattered Clouds
8:55 PM78.4 °F72.5 °F82 %29.90 in10.0 miEast (80°)13.8 mphClear
9:55 PM78.3 °F74.7 °F89 %29.91 in10.0 miEast (80°)11.5 mphScattered Clouds
9:57 PM78.8 °F75.2 °F89 %29.91 in10.0 miENE (70°)11.5 mphMostly Cloudy
10:20 PM78.8 °F73.4 °F83 %29.91 in10.0 miEast (80°)15.0 mphMostly Cloudy
10:29 PM78.8 °F73.4 °F83 %29.91 in10.0 miEast (80°)17.3 mph23.0 mphScattered Clouds
10:55 PM78.8 °F72.9 °F82 %29.91 in10.0 miEast (80°)15.0 mphScattered Clouds
11:08 PM78.8 °F73.4 °F83 %29.91 in10.0 miEast (80°)12.7 mphMostly Cloudy
11:25 PM78.8 °F73.4 °F83 %29.91 in10.0 miEast (80°)15.0 mphScattered Clouds
11:33 PM78.8 °F73.4 °F83 %29.91 in10.0 miEast (80°)11.5 mphMostly Cloudy
11:55 PM78.6 °F73.6 °F84 %29.91 in10.0 miENE (70°)17.3 mphMostly Cloudy
Hourly data recorded from PGUA, located miles away from Merizo, Guam







STORIES FROM OUR PARTNERS